User: anonymous   Login
Location: Unspecified
(0.0000°N, 0.0000°E)
Time: 13:53:16
(UTC+00:00)
Language:

BIROS - Orbit

View from above orbital plane
View from above orbital plane
View from above satellite
View from above satellite

Ground track
Ground track

The orbit data is extracted from the following two-line orbital elements,

1 41604U 16040F   22026.67749053  .00001993  00000-0  87022-4 0  9994
2 41604  97.2336  76.3519 0010212 274.7672  85.2399 15.23219765310875
Epoch (UTC): 26 January 2022 16:15:35
Eccentricity: 0.0010212
inclination: 97.2336°
perigee height: 489 km
apogee height: 503 km
right ascension of ascending node: 76.3519°
argument of perigee: 274.7672°
revolutions per day: 15.23219765
mean anomaly at epoch: 85.2399°
orbit number at epoch: 31087

The dashed part of the orbit path shows where the satellite is in the earth's shadow,  

DLR